User: anonymous   Login
Location: Taipo
(41.0000°S, 175.9500°E)
Time: 14:12:45
(UTC+00:00)
Language:

SL-08 RB Rocket - Orbit

View from above orbital plane
View from above orbital plane
View from above satellite
View from above satellite

Ground track
Ground track

The orbit data is extracted from the following two-line orbital elements,

1 26387U 00033D   24175.91155987  .00001226  00000-0  20610-3 0  9999
2 26387  97.7573 165.6629 0026958  67.0520 293.3528 14.71071341541934
Epoch (UTC): 23 June 2024 21:52:38
Eccentricity: 0.0026958
inclination: 97.7573°
perigee height: 638 km
apogee height: 676 km
right ascension of ascending node: 165.6629°
argument of perigee: 67.0520°
revolutions per day: 14.71071341
mean anomaly at epoch: 293.3528°
orbit number at epoch: 54193

The dashed part of the orbit path shows where the satellite is in the earth's shadow,  

DLR